Lid_Strength_Index
13 13 14 14 15 15 15 15 14 14 14 13 13 13 13 13 13 12 11 8 7 5 4 3 2 1 1 0 -0 -0 -1 -1 -1 -3 -3 -2 -2 -2 -1 -1 -1 -1 -1
14 14 14 14 15 15 15 15 15 15 15 14 14 14 14 13 13 12 12 12 8 7 5 4 3 2 2 1 1 0 -0 -0 -0 -1 -1 -2 -2 -2 -2 -1 -1 -1 -1
14 14 14 15 15 15 15 15 15 15 16 15 15 14 14 13 13 13 13 12 11 8 6 5 4 3 3 2 1 1 1 0 0 -0 -1 -1 -1 -1 -1 -1 -0 -1 -1
14 15 15 16 15 16 16 16 16 16 16 16 16 15 15 14 14 14 13 13 12 11 8 6 5 4 4 3 2 2 1 0 -1 -1 -1 0 0 -1 -2 -2 -1 -0 -1
15 15 16 16 16 16 16 16 17 17 17 17 16 16 15 15 15 13 14 13 12 11 11 8 6 5 4 3 3 3 2 2 2 1 1 -1 -1 -2 -2 -2 -2 -2 -1
15 16 16 16 16 16 17 17 17 17 17 17 16 15 16 15 15 15 14 13 13 12 12 11 10 9 6 5 4 4 3 3 1 2 2 1 0 -1 -1 -1 -1 -2 -2
16 16 16 17 17 17 17 17 17 17 18 17 18 17 17 16 15 15 15 15 14 13 13 13 12 11 10 7 6 5 4 3 3 4 3 3 3 1 0 0 -1 -1 -2
16 16 17 17 17 17 17 17 17 18 18 18 19 19 19 18 15 15 15 15 15 15 14 13 12 12 12 12 10 6 6 5 5 4 4 4 4 3 2 2 1 0 -2
16 16 17 17 18 18 18 18 18 18 18 18 18 19 20 20 19 16 16 15 16 15 15 14 14 13 12 12 11 10 8 7 6 5 5 4 3 3 3 3 2 1 -0
17 17 17 17 18 18 18 18 17 18 18 19 18 17 18 18 20 20 17 17 16 16 16 15 15 13 13 12 11 10 8 8 8 7 6 5 4 4 3 3 3 2 1
17 17 17 18 18 18 18 18 18 18 18 18 18 18 18 19 19 20 20 19 17 17 16 16 15 15 14 13 13 11 9 8 8 7 7 6 5 4 3 2 2 2 2
18 18 18 18 18 18 18 18 18 18 18 19 19 19 19 20 20 20 20 20 20 18 17 16 16 15 14 14 12 10 10 10 9 9 8 7 6 5 4 3 3 2 1
18 18 18 19 18 19 19 18 19 19 19 19 19 20 19 19 18 19 19 20 20 19 18 17 16 15 14 14 13 12 12 11 11 10 9 8 7 6 5 4 4 3 2
17 18 18 19 19 19 19 19 19 19 19 19 20 19 19 19 18 18 19 20 21 20 19 19 17 16 15 15 15 14 15 13 12 11 10 10 8 8 7 6 5 5 4
18 19 19 19 19 19 19 20 20 20 19 19 19 19 19 19 19 19 19 19 20 23 22 20 19 17 17 16 16 16 17 15 13 12 12 11 10 9 8 7 6 6 5
18 19 19 19 20 20 20 20 20 19 20 19 19 19 19 20 20 20 20 20 20 22 24 20 19 19 18 18 17 17 17 16 15 14 13 12 11 10 9 8 7 7 6
18 19 19 19 20 20 20 20 20 20 20 20 20 21 21 21 21 21 21 21 21 21 23 21 20 19 20 20 19 18 18 18 17 15 14 13 12 11 10 9 9 8 8
19 19 19 19 20 20 20 20 21 20 21 21 21 21 22 21 22 21 22 22 22 21 23 24 21 21 21 20 20 20 18 17 17 16 14 13 12 11 10 10 10 9 9
19 19 19 19 20 20 20 20 20 21 21 21 21 21 22 22 22 22 22 22 22 22 22 23 23 21 21 20 20 19 19 18 16 15 13 13 12 12 11 11 10 10 9
19 19 19 19 20 20 20 20 21 21 21 21 21 21 21 22 21 22 22 22 22 23 23 23 22 22 21 19 19 19 19 16 16 15 14 13 13 12 11 11 10 8 7
19 19 20 20 20 21 20 20 20 22 22 21 20 20 20 20 19 19 21 22 22 23 23 22 22 21 20 19 18 17 18 18 17 16 15 15 14 13 12 10 9 8 8
20 20 20 21 21 20 17 17 19 21 20 21 21 20 19 19 18 17 16 16 17 20 21 21 20 20 19 18 17 17 17 18 20 15 16 16 14 14 12 11 9 8 8
20 21 21 21 21 20 16 15 16 19 19 20 19 19 19 18 18 19 18 17 16 16 15 17 19 18 18 17 17 18 18 18 18 16 16 18 14 15 12 11 9 8 8
21 21 21 21 21 20 14 14 15 18 18 18 18 18 18 18 18 18 18 19 18 18 17 16 16 16 16 15 15 15 16 16 15 15 15 18 14 15 12 11 9 8 8
21 21 21 21 21 21 14 14 14 18 19 19 19 18 18 18 16 15 17 19 18 17 15 14 14 14 13 13 14 17 18 19 20 19 15 15 13 14 12 12 10 8 7
20 21 22 21 21 22 14 13 15 19 20 20 19 18 17 17 15 14 17 17 18 17 18 18 16 18 17 18 16 17 18 21 20 20 14 14 14 13 15 12 11 9 9